Home > Time Zones > World Clock > Weather > U.S.A. > Erie > Past weeks

Flag for U.S.A. Weather past 2 weeks in Erie, Pennsylvania, U.S.A.

Now
73 °F

Partly cloudy.


Feels Like: 72 °F
Forecast: 66 / 75 °F
Wind: No wind

Location: Erie International Airport

Current Time: Aug 22, 2014 at 2:07:20 AM

Latest Report: Aug 22, 2014 at 12:51 AM


Visibility: 9 mi

Pressure: 29.98 "Hg

Humidity: 84%

Dew point: 68 °F

Location of ErieLocation

Historic Weather in Erie — Graph

°F

Erie temperature yesterday

Maximum temperature yesterday: 80 °F (at 1:51 PM)
Minimum temperature yesterday: 67 °F (at 5:51 AM)
Average temperature yesterday: 73 °F

Past Weeks' High & Low Weather Summary

 TemperatureHumidityPressure
High82 °F (Aug 19, 5:51 PM)94% (Aug 12, 3:59 PM)30.14 "Hg (Aug 12, 3:59 PM)
Low51 °F (Aug 15, 5:51 AM)41% (Aug 17, 5:51 PM)29.68 "Hg (Aug 12, 2:51 PM)
Average68 °F69%29.95 "Hg
* Reported Aug 7 12:51 AM — Aug 22 12:51 AM, Erie, Weather by CustomWeather, © 2014

Note: Actual official high and low records may vary slightly from our data, if they occured in-between our weather recording intervals... More about our weather records

Advertising

Erie weather history for previous 24 hours

 ConditionsComfort  
Time TempWeatherWind HumidityBarometerVisibility
12:51 AM
Aug 22
73 °FPartly cloudy.No wind84%29.98 "Hg9 mi
11:51 PM
Aug 21
74 °FOvercast.3 mph82%29.98 "Hg9 mi
10:51 PM73 °FMostly cloudy.No wind84%29.98 "Hg9 mi
9:51 PM73 °FPartly cloudy.No wind81%29.97 "Hg10 mi
8:51 PM73 °FPassing clouds.No wind79%29.97 "Hg10 mi
7:51 PM74 °FScattered clouds.No wind76%29.96 "Hg10 mi
6:51 PM75 °FMostly cloudy.3 mph71%29.97 "Hg10 mi
5:51 PM76 °FSunny.5 mph69%29.97 "Hg10 mi
4:51 PM77 °FSunny.6 mph71%29.96 "Hg10 mi
3:51 PM78 °FSunny.9 mph69%29.96 "Hg10 mi
2:51 PM78 °FScattered clouds.8 mph66%29.97 "Hg10 mi
1:51 PM80 °FSunny.9 mph64%29.98 "Hg10 mi
12:51 PM79 °FSunny.7 mph67%29.98 "Hg10 mi
11:51 AM79 °FScattered clouds.6 mph62%29.99 "Hg10 mi
10:51 AM77 °FSunny.No wind66%30.00 "Hg10 mi
9:51 AM75 °FBroken clouds.7 mph74%29.99 "Hg10 mi
8:51 AM72 °FCloudy.6 mph78%30.00 "Hg10 mi
7:51 AM70 °FPartly sunny.3 mph81%29.99 "Hg10 mi
6:51 AM67 °FClear.6 mph90%29.98 "Hg8 mi
5:51 AM67 °FClear.5 mph90%29.96 "Hg8 mi
4:51 AM68 °FClear.5 mph87%29.94 "Hg9 mi
3:51 AM69 °FPassing clouds.6 mph84%29.93 "Hg10 mi
2:51 AM69 °FPassing clouds.5 mph84%29.93 "Hg10 mi
Weather by CustomWeather, © 2014

See weather overviewHow to use our weather pages